User: anonymous
Location: Caltech
(34.1382°N, 118.1253°W)
Time: 01:24:39
(UTC-07:00)
Language:

Sapphire - Orbit

View from above orbital plane
View from above orbital plane
View from above satellite
View from above satellite

Ground track
Ground track

The orbit data is extracted from the following two-line orbital elements,

1 26932U 01043D   14274.81733743  .00000144  00000-0  87665-4 0  7278
2 26932 067.0551 124.5463 0007485 291.0802 068.9498 14.30034421678893
Epoch (UTC): 01 October 2014 19:36:57
Eccentricity: 0.0007485
inclination: 67.0551°
perigee height: 786 km
apogee height: 797 km
right ascension of ascending node: 124.5463°
argument of perigee: 291.0802°
revolutions per day: 14.30034421
mean anomaly at epoch: 68.9498°
orbit number at epoch: 67889

The dashed part of the orbit path shows where the satellite is in the earth's shadow,  

DLR